Location: Berg
(47.2344°N, 9.5296°E)
Time: 22:56:27
(UTC+00:00)

CZ-4C R/B - Pass Details

Date: 24 January 2021
Orbit: 617 x 1385 km, 63.4° (Epoch: 04 March)

Event Time Altitude Azimuth Distance (km) Brightness Sun altitude
Rises 17:34:38 0° 283° (WNW) 3,276 6.5 -13.9°
Reaches altitude 10° 17:37:32 10° 300° (WNW) 2,471 5.3 -14.4°
Maximum altitude 17:41:48 21° 348° (NNW) 2,002 4.1 -15.1°
Enters shadow 17:46:32 10° 34° (NE) 2,838 4.5 -15.9°
